SL-16 DEB, 22359

Orbit data source: Space-Track

SL-16 DEB, 22359 is space debris in LEO originally from a launch on Fri, 25 Dec 1992 UTC launched from the Tyuratam Missile And Space Complex (TTMTR). Debris objects in space refer to the collection of defunct objects orbiting the Earth. Examples of debris include non-operational satellites, rocket bodies, and fragments generated from explosions, collisions, or faulty payload assembly.

Loading next visibility...
Identifier
22359, 1992-093AY
Orbit
LEO
Country
Flag of CISCIS
Related business
Manufacturer
Unknown
Mission
Spacecraft
Bus & Motor
Unknown
Mass
Unknown
Launch date (UTC)
1992-12-25 (33 years ago)
Launch vehicle
Unknown
Launch site
Tyuratam Missile And Space Complex (TTMTR)
Object type
Payload
Rocket body
Debris
Shape & HBR
Unknown shape, 0.1 m
Radar Cross Section
Medium (>0.1 m² and <1 m²)

Expand to show TLE details & history
Last TLE update: 2 days ago

TLE from 2 days ago
0 SL-16 DEB
1 22359U 92093AY  26171.46311249  .00000718  00000-0  49035-3 0  9991
2 22359  70.7399 300.8894 0158807 123.1493 306.1692 13.97251235691520
Epoch: 2026-06-20T11:06Z
TLE epoch observation values (Epoch: 2026-06-20T11:06:52.919Z)
Latitude
61.06515°
Longitude
-95.55364°
Altitude
846.158 km
Speed
7.47 km/s
True Right ascension
22h 39m 22s
True Declination
60° 55' 16"
Sunlit
Object was in daylight at epoch
Visualization orbit readout
Latitude
Unknown
Longitude
Unknown
Altitude
Unknown
Speed
Unknown
Apparent Right ascension
Unknown
Apparent Declination
Unknown
Sunlit
N/A
Visualization observer readout
Local Sidereal Time
07:09:51
Azimuth
Unknown
Elevation
Unknown
Doppler factor
Unknown
Orbital elements
Apogee altitude
1,016.899 km
Perigee altitude
785.694 km
Semi-major axis
7,279.433 km
Eccentricity
0.01588
Inclination
70.7399°
RAAN
300.8894°
Arg. of periapsis
123.1493°
True anomaly
304.68288°
Mean anomaly
306.1692°
Eccentric anomaly
305.42777°
Mean motion
3.49459 °/min
Orbital period
103.02 mins
BSTAR
0.00049035
Loading maneuver chart data...
Computing Atmospheric mass density...
Loading historical data...
Loading historical data...
Loading historical data...
Loading historical data...
Loading historical data...
Loading historical data...
Loading historical data...

Documentation

Showing up to 5 results
|